User: anonymous   Login
Location: Caltech
(34.1382°N, 118.1253°W)
Time: 15:41:21
(UTC-08:00)
Language:

Iridium 95 - Orbit

View from above orbital plane
View from above orbital plane
View from above satellite
View from above satellite

Ground track
Ground track

The orbit data is extracted from the following two-line orbital elements,

1 27375U 02005D   14326.50629847  .00000299  00000-0  99823-4 0  5292
2 27375 086.3958 319.4343 0002133 106.9624 253.1806 14.34218766676511
Epoch (UTC): 22 November 2014 12:09:04
Eccentricity: 0.0002133
inclination: 86.3958°
perigee height: 776 km
apogee height: 779 km
right ascension of ascending node: 319.4343°
argument of perigee: 106.9624°
revolutions per day: 14.34218766
mean anomaly at epoch: 253.1806°
orbit number at epoch: 67651

The dashed part of the orbit path shows where the satellite is in the earth's shadow,  

DLR